Location: Treviso
(45.6669°N, 12.2430°E)
Time: 19:42:26
(UTC+02:00)

ISS - Pass Details

Date: 23 May 2018
Orbit: 402 x 407 km, 51.6° (Epoch: 25 May)

Event Time Altitude Azimuth Distance (km) Brightness Sun altitude
Rises 03:49:18 0° 295° (WNW) 2,319 -0.1 -14.3°
Reaches altitude 10° 03:51:27 10° 287° (WNW) 1,457 -1.2 -14.1°
Maximum altitude 03:54:31 38° 217° (SW) 626 -3.4 -13.7°
Drops below altitude 10° 03:57:34 10° 147° (SSE) 1,449 -1.2 -13.4°
Sets 03:59:42 0° 139° (SE) 2,304 -0.1 -13.2°
